UAL571 KEWR-KEYW

Flight info

Callsign UAL571
Flight time 2h 59m
Altitude 38000
Route ELVAE NECCK WHITE Q409 CRPLR EARZZ Q131 WAALT Y289 BAHAA HIBAC EBAYY FNTSY1
Aircraft A320/M-SDE3FGHIRWY/LB1

Departure

Time 2026-05-08 02:46
Airport Newark Liberty International Airport (KEWR)

Arrival

Time 2026-05-08 05:45
Airport Key West International Airport (KEYW)
Time Latitude Longitude Altitude Speed Heading
2026-05-08 02:26 40.68434 -74.18335 24 ft 0 kts 185°
2026-05-08 02:37 40.68440 -74.18335 22 ft 4 kts 185°
2026-05-08 02:37 40.68466 -74.18332 22 ft 4 kts 185°
2026-05-08 02:37 40.68487 -74.18329 22 ft 4 kts 170°
2026-05-08 02:38 40.68505 -74.18343 22 ft 4 kts 99°
2026-05-08 02:38 40.68507 -74.18373 22 ft 1 kts 95°
2026-05-08 02:41 40.68507 -74.18372 22 ft 1 kts 95°
2026-05-08 02:41 40.68505 -74.18337 22 ft 13 kts 94°
2026-05-08 02:41 40.68493 -74.18197 22 ft 17 kts 104°
2026-05-08 02:41 40.68427 -74.18057 24 ft 19 kts 115°
2026-05-08 02:42 40.68375 -74.17914 23 ft 15 kts 115°
2026-05-08 02:42 40.68329 -74.17789 23 ft 16 kts 116°
2026-05-08 02:42 40.68278 -74.17667 23 ft 14 kts 139°
2026-05-08 02:42 40.68182 -74.17697 24 ft 16 kts 206°
2026-05-08 02:43 40.68077 -74.17763 23 ft 18 kts 205°
2026-05-08 02:43 40.67960 -74.17837 23 ft 20 kts 206°
2026-05-08 02:43 40.67834 -74.17918 22 ft 21 kts 205°
2026-05-08 02:43 40.67727 -74.17986 23 ft 14 kts 205°
2026-05-08 02:44 40.67653 -74.18033 24 ft 9 kts 206°
2026-05-08 02:44 40.67594 -74.18033 22 ft 7 kts 139°
2026-05-08 02:44 40.67560 -74.17975 22 ft 9 kts 118°
2026-05-08 02:44 40.67583 -74.17917 23 ft 10 kts 25°
2026-05-08 02:45 40.67814 -74.17771 21 ft 70 kts 25°
2026-05-08 02:45 40.68435 -74.17381 25 ft 125 kts 26°
2026-05-08 02:45 40.69348 -74.16795 61 ft 162 kts 26°
2026-05-08 02:45 40.70343 -74.16123 593 ft 161 kts 30°
2026-05-08 02:46 40.71184 -74.15174 1162 ft 162 kts 43°
2026-05-08 02:46 40.72008 -74.14129 1702 ft 163 kts 43°
2026-05-08 02:46 40.72869 -74.13049 1917 ft 184 kts 42°
2026-05-08 02:46 40.73856 -74.11818 2084 ft 207 kts 43°
2026-05-08 02:47 40.74972 -74.10462 2314 ft 228 kts 36°
2026-05-08 02:47 40.76483 -74.09629 2554 ft 248 kts
2026-05-08 02:47 40.78186 -74.10050 3129 ft 255 kts 330°
2026-05-08 02:47 40.79450 -74.11660 3919 ft 258 kts 298°
2026-05-08 02:48 40.79790 -74.13967 4740 ft 263 kts 264°
2026-05-08 02:48 40.79269 -74.16297 5560 ft 269 kts 244°
2026-05-08 02:48 40.78078 -74.18218 6339 ft 277 kts 220°
2026-05-08 02:48 40.76355 -74.19318 7074 ft 284 kts 199°
2026-05-08 02:49 40.74445 -74.20064 7828 ft 288 kts 199°
2026-05-08 02:49 40.72514 -74.20797 8548 ft 290 kts 199°
2026-05-08 02:49 40.70562 -74.21536 9266 ft 294 kts 200°
2026-05-08 02:49 40.68595 -74.22285 9994 ft 295 kts 200°
2026-05-08 02:50 40.66579 -74.23056 10342 ft 313 kts 201°
2026-05-08 02:50 40.64418 -74.23894 10470 ft 334 kts 201°
2026-05-08 02:50 40.62122 -74.24785 10603 ft 353 kts 201°
2026-05-08 02:50 40.59714 -74.25715 10913 ft 366 kts 201°
2026-05-08 02:51 40.57261 -74.26519 11502 ft 373 kts 194°
2026-05-08 02:51 40.54643 -74.26703 12223 ft 381 kts 184°
2026-05-08 02:51 40.52004 -74.26202 12971 ft 388 kts 173°
2026-05-08 02:51 40.49422 -74.25054 13628 ft 395 kts 167°
2026-05-08 02:52 40.46850 -74.23773 14268 ft 396 kts 167°
2026-05-08 02:52 40.44266 -74.22488 14848 ft 398 kts 167°
2026-05-08 02:52 40.41672 -74.21200 15424 ft 399 kts 167°
2026-05-08 02:52 40.39069 -74.19912 16000 ft 401 kts 168°
2026-05-08 02:53 40.36490 -74.18641 16545 ft 402 kts 168°
2026-05-08 02:53 40.33821 -74.17777 17050 ft 390 kts 182°
2026-05-08 02:53 40.31166 -74.17914 17553 ft 377 kts 198°
2026-05-08 02:53 40.28715 -74.18983 18050 ft 369 kts 211°
2026-05-08 02:54 40.26417 -74.20469 18543 ft 369 kts 211°
2026-05-08 02:54 40.24111 -74.21977 18993 ft 372 kts 212°
2026-05-08 02:54 40.21790 -74.23496 19434 ft 374 kts 212°
2026-05-08 02:54 40.19451 -74.25023 19847 ft 377 kts 212°
2026-05-08 02:55 40.17096 -74.26561 20261 ft 380 kts 212°
2026-05-08 02:55 40.12359 -74.29645 21009 ft 385 kts 212°
2026-05-08 02:55 40.09954 -74.31206 21350 ft 388 kts 212°
2026-05-08 02:56 40.07532 -74.32771 21694 ft 390 kts 212°
2026-05-08 02:56 40.05093 -74.34341 22020 ft 392 kts 212°
2026-05-08 02:56 40.02645 -74.35916 22335 ft 393 kts 212°
2026-05-08 02:56 40.00183 -74.37505 22625 ft 395 kts 212°
2026-05-08 02:57 39.97716 -74.39104 22898 ft 398 kts 212°
2026-05-08 02:57 39.95230 -74.40714 23187 ft 400 kts 212°
2026-05-08 02:57 39.92768 -74.42302 23472 ft 402 kts 212°
2026-05-08 02:57 39.90258 -74.43918 23749 ft 403 kts 212°
2026-05-08 02:58 39.87740 -74.45537 24120 ft 403 kts 212°
2026-05-08 02:58 39.85229 -74.47149 24540 ft 402 kts 212°
2026-05-08 02:58 39.82731 -74.48751 24965 ft 400 kts 213°
2026-05-08 02:58 39.80240 -74.50351 25397 ft 399 kts 213°
2026-05-08 02:59 39.77758 -74.51947 25832 ft 397 kts 213°
2026-05-08 02:59 39.75286 -74.53534 26257 ft 396 kts 213°
2026-05-08 02:59 39.72855 -74.55091 26689 ft 394 kts 213°
2026-05-08 02:59 39.70399 -74.56660 27130 ft 392 kts 214°
2026-05-08 03:00 39.67957 -74.58220 27568 ft 390 kts 214°
2026-05-08 03:00 39.65526 -74.59771 28012 ft 388 kts 214°
2026-05-08 03:00 39.63109 -74.61317 28422 ft 387 kts 214°
2026-05-08 03:00 39.60702 -74.62857 28839 ft 385 kts 215°
2026-05-08 03:01 39.58307 -74.64388 29265 ft 383 kts 215°
2026-05-08 03:01 39.55914 -74.65911 29691 ft 382 kts 215°
2026-05-08 03:01 39.53564 -74.67402 30102 ft 380 kts 215°
2026-05-08 03:01 39.51195 -74.68906 30511 ft 378 kts 216°
2026-05-08 03:02 39.48833 -74.70403 30913 ft 377 kts 216°
2026-05-08 03:02 39.46480 -74.71895 31273 ft 376 kts 216°
2026-05-08 03:02 39.44131 -74.73384 31651 ft 375 kts 216°
2026-05-08 03:02 39.41791 -74.74866 32020 ft 374 kts 217°
2026-05-08 03:03 39.39456 -74.76346 32382 ft 373 kts 216°
2026-05-08 03:03 39.37125 -74.77822 32747 ft 372 kts 217°
2026-05-08 03:03 39.34804 -74.79290 33120 ft 371 kts 217°
2026-05-08 03:03 39.32525 -74.80732 33495 ft 369 kts 217°
2026-05-08 03:04 39.30219 -74.82191 33824 ft 368 kts 217°
2026-05-08 03:04 39.27921 -74.83644 34148 ft 368 kts 217°
2026-05-08 03:04 39.25625 -74.85094 34479 ft 366 kts 217°
2026-05-08 03:04 39.23337 -74.86540 34740 ft 366 kts 217°
2026-05-08 03:05 39.21047 -74.87987 34984 ft 367 kts 217°
2026-05-08 03:05 39.18757 -74.89430 35238 ft 366 kts 217°
2026-05-08 03:05 39.16463 -74.90872 35478 ft 366 kts 217°
2026-05-08 03:05 39.14205 -74.92291 35709 ft 366 kts 217°
2026-05-08 03:06 39.11915 -74.93730 35920 ft 366 kts 217°
2026-05-08 03:06 39.09623 -74.95169 36111 ft 367 kts 217°
2026-05-08 03:06 39.07329 -74.96606 36331 ft 366 kts 217°
2026-05-08 03:06 39.05038 -74.98040 36522 ft 367 kts 217°
2026-05-08 03:07 39.02743 -74.99475 36716 ft 366 kts 217°
2026-05-08 03:07 39.00454 -75.00903 36939 ft 365 kts 217°
2026-05-08 03:07 38.98172 -75.02327 37171 ft 363 kts 217°
2026-05-08 03:07 38.95909 -75.03741 37420 ft 361 kts 217°
2026-05-08 03:08 38.93655 -75.05150 37634 ft 360 kts 217°
2026-05-08 03:08 38.91405 -75.06556 37797 ft 359 kts 217°
2026-05-08 03:08 38.89185 -75.07937 37919 ft 360 kts 217°
2026-05-08 03:09 38.84656 -75.10757 37942 ft 363 kts 217°
2026-05-08 03:09 38.80111 -75.13590 37947 ft 363 kts 217°
2026-05-08 03:10 38.75564 -75.16416 37953 ft 364 kts 217°
2026-05-08 03:10 38.71036 -75.19223 37955 ft 364 kts 217°
2026-05-08 03:11 38.66476 -75.22046 37957 ft 364 kts 217°
2026-05-08 03:11 38.61908 -75.24867 37962 ft 365 kts 217°
2026-05-08 03:12 38.57337 -75.27695 37956 ft 365 kts 217°
2026-05-08 03:12 38.52793 -75.30495 37962 ft 365 kts 217°
2026-05-08 03:13 38.48212 -75.33313 37957 ft 366 kts 217°
2026-05-08 03:13 38.43629 -75.36130 37967 ft 366 kts 217°
2026-05-08 03:14 38.39041 -75.38944 37961 ft 366 kts 217°
2026-05-08 03:14 38.34449 -75.41763 37955 ft 366 kts 218°
2026-05-08 03:15 38.29891 -75.44560 37968 ft 366 kts 218°
2026-05-08 03:15 38.25296 -75.47380 37959 ft 367 kts 218°
2026-05-08 03:16 38.20691 -75.50194 37959 ft 368 kts 218°
2026-05-08 03:16 38.16105 -75.52985 37970 ft 368 kts 218°
2026-05-08 03:17 38.11488 -75.55790 37970 ft 368 kts 218°
2026-05-08 03:17 38.06873 -75.58593 37978 ft 368 kts 218°
2026-05-08 03:18 38.02247 -75.61400 37972 ft 368 kts 218°
2026-05-08 03:18 37.97628 -75.64202 37973 ft 368 kts 218°
2026-05-08 03:19 37.93038 -75.66975 37978 ft 368 kts 218°
2026-05-08 03:19 37.88410 -75.69778 37968 ft 369 kts 218°
2026-05-08 03:20 37.83785 -75.72583 37977 ft 369 kts 218°
2026-05-08 03:20 37.79148 -75.75374 37973 ft 369 kts 218°
2026-05-08 03:21 37.75292 -75.77689 37971 ft 369 kts 218°
2026-05-08 03:21 37.69903 -75.80924 37976 ft 369 kts 218°
2026-05-08 03:22 37.65267 -75.83712 37970 ft 369 kts 218°
2026-05-08 03:22 37.61413 -75.86025 37977 ft 369 kts 218°
2026-05-08 03:23 37.56779 -75.88802 37964 ft 369 kts 218°
2026-05-08 03:23 37.51389 -75.92031 37975 ft 369 kts 218°
2026-05-08 03:24 37.46750 -75.94795 37972 ft 369 kts 218°
2026-05-08 03:24 37.42896 -75.97090 37978 ft 369 kts 218°
2026-05-08 03:25 37.38263 -75.99848 37969 ft 368 kts 218°
2026-05-08 03:25 37.32877 -76.03046 37971 ft 368 kts 218°
2026-05-08 03:26 37.29005 -76.05355 37967 ft 368 kts 219°
2026-05-08 03:26 37.24407 -76.08091 37978 ft 368 kts 219°
2026-05-08 03:27 37.19780 -76.10839 37977 ft 368 kts 219°
2026-05-08 03:27 37.15152 -76.13582 37968 ft 368 kts 219°
2026-05-08 03:28 37.10517 -76.16315 37977 ft 368 kts 219°
2026-05-08 03:28 37.05873 -76.19048 37978 ft 369 kts 219°
2026-05-08 03:29 37.01259 -76.21756 37979 ft 369 kts 219°
2026-05-08 03:29 36.96614 -76.24490 37980 ft 369 kts 219°
2026-05-08 03:30 36.89658 -76.28590 37986 ft 368 kts 219°
2026-05-08 03:31 36.80410 -76.34005 37986 ft 368 kts 219°
2026-05-08 03:32 36.73457 -76.38073 37994 ft 368 kts 219°
2026-05-08 03:32 36.68818 -76.40773 37997 ft 368 kts 219°
2026-05-08 03:33 36.64211 -76.43452 37995 ft 368 kts 219°
2026-05-08 03:33 36.59569 -76.46152 37996 ft 368 kts 219°
2026-05-08 03:34 36.54929 -76.48858 37996 ft 368 kts 219°
2026-05-08 03:34 36.50321 -76.51544 37996 ft 369 kts 219°
2026-05-08 03:35 36.45668 -76.54237 37995 ft 369 kts 219°
2026-05-08 03:35 36.41018 -76.56929 37997 ft 369 kts 219°
2026-05-08 03:36 36.36362 -76.59617 38005 ft 369 kts 219°
2026-05-08 03:36 36.31743 -76.62289 38008 ft 369 kts 219°
2026-05-08 03:37 36.27088 -76.64976 38009 ft 369 kts 219°
2026-05-08 03:37 36.22430 -76.67654 38006 ft 369 kts 219°
2026-05-08 03:38 36.17770 -76.70331 38005 ft 369 kts 219°
2026-05-08 03:38 36.13141 -76.72985 38002 ft 369 kts 219°
2026-05-08 03:39 36.08480 -76.75649 38002 ft 369 kts 219°
2026-05-08 03:39 36.03824 -76.78318 37999 ft 369 kts 219°
2026-05-08 03:40 35.99170 -76.80989 37999 ft 369 kts 219°
2026-05-08 03:40 35.94545 -76.83632 37995 ft 369 kts 219°
2026-05-08 03:41 35.89879 -76.86302 37995 ft 369 kts 220°
2026-05-08 03:41 35.85295 -76.89101 37995 ft 367 kts 221°
2026-05-08 03:42 35.80751 -76.91966 37993 ft 367 kts 221°
2026-05-08 03:42 35.76185 -76.94813 37993 ft 368 kts 221°
2026-05-08 03:43 35.71621 -76.97615 37997 ft 369 kts 220°
2026-05-08 03:43 35.67019 -77.00431 37999 ft 370 kts 220°
2026-05-08 03:44 35.62412 -77.03248 38002 ft 370 kts 220°
2026-05-08 03:44 35.57811 -77.06066 38003 ft 369 kts 220°
2026-05-08 03:45 35.53243 -77.08870 38004 ft 369 kts 221°
2026-05-08 03:45 35.48642 -77.11679 38005 ft 370 kts 220°
2026-05-08 03:46 35.44032 -77.14485 38003 ft 370 kts 220°
2026-05-08 03:46 35.39422 -77.17304 38005 ft 370 kts 221°
2026-05-08 03:47 35.34798 -77.20131 37992 ft 378 kts 220°
2026-05-08 03:47 35.30038 -77.23034 37990 ft 386 kts 220°
2026-05-08 03:48 35.25210 -77.25957 37988 ft 388 kts 220°
2026-05-08 03:48 35.20353 -77.28899 37988 ft 392 kts 220°
2026-05-08 03:49 35.15481 -77.31841 37991 ft 394 kts 219°
2026-05-08 03:49 35.10555 -77.34806 37993 ft 395 kts 219°
2026-05-08 03:50 35.05619 -77.37782 37998 ft 396 kts 219°
2026-05-08 03:50 35.00673 -77.40766 38002 ft 397 kts 219°
2026-05-08 03:51 34.95710 -77.43757 38007 ft 398 kts 219°
2026-05-08 03:51 34.90775 -77.46724 38010 ft 399 kts 219°
2026-05-08 03:52 34.85799 -77.49709 38011 ft 399 kts 219°
2026-05-08 03:52 34.80816 -77.52695 38012 ft 399 kts 219°
2026-05-08 03:53 34.75833 -77.55679 38011 ft 400 kts 219°
2026-05-08 03:53 34.70872 -77.58645 38011 ft 400 kts 219°
2026-05-08 03:54 34.65879 -77.61628 38004 ft 400 kts 219°
2026-05-08 03:54 34.60879 -77.64606 38004 ft 400 kts 219°
2026-05-08 03:55 34.55781 -77.67432 38003 ft 413 kts 211°
2026-05-08 03:55 34.52977 -77.68272 38002 ft 424 kts 206°
2026-05-08 03:55 34.50087 -77.69010 38000 ft 425 kts 205°
2026-05-08 03:56 34.44286 -77.70471 37997 ft 426 kts 205°
2026-05-08 03:56 34.38478 -77.71938 37994 ft 426 kts 205°
2026-05-08 03:57 34.32672 -77.73419 37993 ft 427 kts 205°
2026-05-08 03:57 34.26859 -77.74894 37986 ft 427 kts 205°
2026-05-08 03:58 34.21083 -77.76361 37984 ft 427 kts 205°
2026-05-08 03:58 34.15258 -77.77828 37986 ft 428 kts 205°
2026-05-08 03:59 34.09431 -77.79299 37983 ft 428 kts 205°
2026-05-08 03:59 34.03613 -77.80772 37984 ft 427 kts 205°
2026-05-08 04:00 33.97827 -77.82237 37985 ft 428 kts 205°
2026-05-08 04:00 33.92000 -77.83707 37986 ft 428 kts 205°
2026-05-08 04:01 33.86176 -77.85174 37985 ft 428 kts 205°
2026-05-08 04:01 33.80347 -77.86625 37984 ft 428 kts 205°
2026-05-08 04:02 33.74636 -77.88274 37984 ft 422 kts 208°
2026-05-08 04:02 33.69031 -77.90261 37985 ft 419 kts 210°
2026-05-08 04:03 33.63436 -77.92280 37987 ft 420 kts 209°
2026-05-08 04:03 33.55027 -77.95149 37985 ft 421 kts 208°
2026-05-08 04:04 33.49391 -77.97038 37985 ft 421 kts 208°
2026-05-08 04:04 33.43749 -77.98931 37985 ft 422 kts 208°
2026-05-08 04:05 33.38102 -78.00831 37986 ft 421 kts 208°
2026-05-08 04:05 33.32557 -78.02701 37987 ft 418 kts 208°
2026-05-08 04:06 33.26945 -78.04608 37982 ft 421 kts 208°
2026-05-08 04:06 33.21295 -78.06506 37982 ft 422 kts 208°
2026-05-08 04:07 33.15630 -78.08397 37983 ft 423 kts 208°
2026-05-08 04:07 33.09951 -78.10294 37984 ft 424 kts 208°
2026-05-08 04:08 33.04303 -78.12188 37987 ft 425 kts 208°
2026-05-08 04:08 32.98607 -78.14092 37984 ft 425 kts 207°
2026-05-08 04:09 32.92902 -78.15996 37981 ft 426 kts 207°
2026-05-08 04:09 32.87188 -78.17897 37982 ft 426 kts 207°
2026-05-08 04:10 32.81502 -78.19793 37982 ft 428 kts 207°
2026-05-08 04:10 32.75763 -78.21700 37987 ft 429 kts 207°
2026-05-08 04:11 32.70008 -78.23609 37991 ft 429 kts 207°
2026-05-08 04:11 32.64245 -78.25519 37995 ft 430 kts 207°
2026-05-08 04:12 32.58478 -78.27433 37996 ft 430 kts 207°
2026-05-08 04:12 32.52746 -78.29331 37995 ft 431 kts 206°
2026-05-08 04:13 32.47088 -78.31173 37961 ft 411 kts 207°
2026-05-08 04:13 32.41598 -78.32975 37977 ft 409 kts 207°
2026-05-08 04:14 32.36131 -78.34794 37976 ft 408 kts 207°
2026-05-08 04:14 32.30695 -78.36595 37971 ft 408 kts 207°
2026-05-08 04:15 32.25219 -78.38396 37981 ft 408 kts 207°
2026-05-08 04:15 32.19738 -78.40198 37981 ft 409 kts 206°
2026-05-08 04:16 32.14250 -78.41991 37981 ft 409 kts 206°
2026-05-08 04:16 32.08761 -78.43786 37975 ft 409 kts 206°
2026-05-08 04:17 32.03316 -78.45567 37977 ft 409 kts 207°
2026-05-08 04:17 31.97836 -78.47358 37979 ft 408 kts 206°
2026-05-08 04:18 31.92354 -78.49149 37980 ft 409 kts 206°
2026-05-08 04:18 31.86867 -78.50935 37981 ft 409 kts 206°
2026-05-08 04:19 31.81411 -78.52711 37970 ft 410 kts 206°
2026-05-08 04:19 31.75907 -78.54493 37978 ft 410 kts 206°
2026-05-08 04:20 31.70398 -78.56277 37982 ft 411 kts 206°
2026-05-08 04:20 31.64916 -78.58055 37985 ft 412 kts 206°
2026-05-08 04:21 31.59396 -78.59842 37988 ft 411 kts 206°
2026-05-08 04:21 31.53880 -78.61622 37987 ft 411 kts 206°
2026-05-08 04:22 31.48400 -78.63476 37986 ft 409 kts 207°
2026-05-08 04:22 31.42941 -78.65380 37988 ft 409 kts 207°
2026-05-08 04:23 31.37514 -78.67258 37990 ft 410 kts 207°
2026-05-08 04:23 31.32033 -78.69127 37991 ft 411 kts 206°
2026-05-08 04:24 31.26546 -78.70988 37989 ft 410 kts 206°
2026-05-08 04:24 31.21062 -78.72859 37990 ft 410 kts 207°
2026-05-08 04:25 31.15615 -78.74721 37990 ft 410 kts 206°
2026-05-08 04:25 31.10130 -78.76580 37991 ft 410 kts 206°
2026-05-08 04:26 31.04645 -78.78438 37989 ft 412 kts 206°
2026-05-08 04:26 30.99134 -78.80314 37994 ft 412 kts 206°
2026-05-08 04:27 30.93660 -78.82166 37998 ft 413 kts 206°
2026-05-08 04:27 30.88145 -78.84031 38002 ft 413 kts 206°
2026-05-08 04:28 30.82622 -78.85899 38006 ft 413 kts 206°
2026-05-08 04:28 30.77095 -78.87774 38006 ft 414 kts 206°
2026-05-08 04:29 30.71602 -78.89634 38009 ft 414 kts 206°
2026-05-08 04:29 30.66065 -78.91495 38011 ft 414 kts 206°
2026-05-08 04:30 30.60526 -78.93349 38012 ft 414 kts 206°
2026-05-08 04:30 30.54992 -78.95212 38014 ft 414 kts 206°
2026-05-08 04:31 30.49487 -78.97059 38019 ft 415 kts 206°
2026-05-08 04:31 30.43942 -78.98911 38019 ft 414 kts 206°
2026-05-08 04:32 30.38480 -79.00939 38017 ft 410 kts 210°
2026-05-08 04:32 30.33174 -79.03320 38019 ft 409 kts 211°
2026-05-08 04:33 30.27915 -79.05738 38018 ft 410 kts 211°
2026-05-08 04:33 30.22588 -79.08107 38019 ft 411 kts 210°
2026-05-08 04:34 30.17224 -79.10425 38016 ft 412 kts 210°
2026-05-08 04:34 30.11851 -79.12740 38015 ft 412 kts 210°
2026-05-08 04:35 30.06478 -79.15082 38016 ft 413 kts 210°
2026-05-08 04:35 30.01131 -79.17407 38017 ft 414 kts 210°
2026-05-08 04:36 29.95744 -79.19739 38011 ft 414 kts 209°
2026-05-08 04:36 29.90338 -79.22073 38004 ft 416 kts 209°
2026-05-08 04:37 29.84911 -79.24426 38006 ft 417 kts 209°
2026-05-08 04:37 29.79505 -79.26760 38009 ft 418 kts 209°
2026-05-08 04:38 29.74052 -79.29111 38009 ft 419 kts 209°
2026-05-08 04:38 29.68589 -79.31459 38011 ft 419 kts 209°
2026-05-08 04:39 29.63122 -79.33814 38013 ft 420 kts 209°
2026-05-08 04:39 29.57689 -79.36151 38016 ft 421 kts 209°
2026-05-08 04:40 29.52207 -79.38505 38017 ft 421 kts 209°
2026-05-08 04:40 29.46722 -79.40858 38018 ft 421 kts 208°
2026-05-08 04:41 29.41230 -79.43209 38023 ft 421 kts 208°
2026-05-08 04:41 29.35777 -79.45543 38022 ft 422 kts 208°
2026-05-08 04:42 29.30276 -79.47892 38023 ft 422 kts 208°
2026-05-08 04:42 29.24782 -79.50242 38022 ft 421 kts 208°
2026-05-08 04:43 29.19288 -79.52593 38021 ft 422 kts 208°
2026-05-08 04:43 29.13813 -79.54922 38023 ft 423 kts 208°
2026-05-08 04:44 29.08417 -79.57487 38019 ft 414 kts 217°
2026-05-08 04:44 29.03503 -79.60883 38020 ft 412 kts 218°
2026-05-08 04:45 28.98594 -79.64286 38016 ft 413 kts 218°
2026-05-08 04:45 28.93704 -79.67666 38015 ft 414 kts 218°
2026-05-08 04:46 28.88775 -79.71077 38014 ft 415 kts 218°
2026-05-08 04:46 28.83833 -79.74486 38012 ft 415 kts 218°
2026-05-08 04:47 28.78882 -79.77889 38009 ft 416 kts 218°
2026-05-08 04:47 28.73960 -79.81275 38008 ft 416 kts 217°
2026-05-08 04:48 28.68998 -79.84694 38010 ft 417 kts 217°
2026-05-08 04:48 28.64018 -79.88106 38016 ft 418 kts 217°
2026-05-08 04:49 28.59036 -79.91521 38018 ft 418 kts 217°
2026-05-08 04:49 28.54090 -79.94916 38018 ft 418 kts 217°
2026-05-08 04:50 28.49103 -79.98327 38014 ft 418 kts 217°
2026-05-08 04:50 28.44113 -80.01746 38015 ft 419 kts 217°
2026-05-08 04:51 28.39113 -80.05160 38011 ft 419 kts 217°
2026-05-08 04:51 28.34146 -80.08548 38009 ft 420 kts 217°
2026-05-08 04:52 28.29139 -80.11960 38008 ft 419 kts 217°
2026-05-08 04:52 28.24136 -80.15364 38007 ft 420 kts 217°
2026-05-08 04:53 28.19122 -80.18768 38007 ft 420 kts 217°
2026-05-08 04:53 28.14145 -80.22152 38012 ft 420 kts 217°
2026-05-08 04:54 28.09133 -80.25559 38014 ft 420 kts 217°
2026-05-08 04:54 28.04113 -80.28956 38020 ft 421 kts 217°
2026-05-08 04:55 27.99088 -80.32348 38023 ft 420 kts 217°
2026-05-08 04:55 27.94098 -80.35723 38021 ft 421 kts 216°
2026-05-08 04:56 27.89066 -80.39128 38029 ft 422 kts 216°
2026-05-08 04:56 27.84030 -80.42530 38033 ft 422 kts 216°
2026-05-08 04:57 27.78986 -80.45930 38038 ft 423 kts 216°
2026-05-08 04:57 27.73803 -80.49114 38041 ft 430 kts 206°
2026-05-08 04:58 27.67917 -80.50498 38042 ft 444 kts 190°
2026-05-08 04:58 27.61751 -80.50972 38041 ft 444 kts 190°
2026-05-08 04:59 27.55584 -80.51463 38042 ft 444 kts 190°
2026-05-08 04:59 27.49413 -80.51956 38044 ft 445 kts 190°
2026-05-08 05:00 27.43284 -80.52440 38050 ft 445 kts 190°
2026-05-08 05:00 27.37106 -80.52928 38050 ft 445 kts 190°
2026-05-08 05:01 27.30919 -80.53412 38048 ft 446 kts 189°
2026-05-08 05:01 27.24727 -80.53899 38047 ft 446 kts 189°
2026-05-08 05:02 27.18572 -80.54386 38046 ft 447 kts 189°
2026-05-08 05:02 27.12371 -80.54878 38047 ft 447 kts 189°
2026-05-08 05:03 27.06166 -80.55362 38046 ft 447 kts 189°
2026-05-08 05:03 26.99958 -80.55845 38048 ft 448 kts 189°
2026-05-08 05:04 26.93770 -80.56329 38053 ft 448 kts 189°
2026-05-08 05:04 26.87551 -80.56810 38055 ft 448 kts 189°
2026-05-08 05:05 26.81331 -80.57301 38057 ft 449 kts 189°
2026-05-08 05:05 26.75095 -80.57796 38057 ft 450 kts 189°
2026-05-08 05:06 26.68895 -80.58275 38061 ft 450 kts 189°
2026-05-08 05:06 26.62652 -80.58759 38061 ft 450 kts 188°
2026-05-08 05:07 26.56406 -80.59247 38060 ft 450 kts 188°
2026-05-08 05:07 26.50152 -80.59731 38062 ft 451 kts 188°
2026-05-08 05:08 26.43896 -80.60214 38060 ft 451 kts 188°
2026-05-08 05:08 26.37678 -80.60696 38060 ft 451 kts 188°
2026-05-08 05:09 26.31418 -80.61184 38060 ft 451 kts 188°
2026-05-08 05:09 26.25155 -80.61669 38059 ft 451 kts 188°
2026-05-08 05:10 26.15804 -80.62386 38060 ft 451 kts 188°
2026-05-08 05:11 26.09535 -80.62843 38058 ft 452 kts 188°
2026-05-08 05:11 26.03261 -80.63309 38062 ft 452 kts 188°
2026-05-08 05:12 25.96986 -80.63780 38060 ft 452 kts 187°
2026-05-08 05:12 25.90748 -80.64246 38060 ft 453 kts 187°
2026-05-08 05:13 25.84462 -80.64713 38065 ft 453 kts 187°
2026-05-08 05:13 25.78176 -80.65180 38064 ft 452 kts 187°
2026-05-08 05:13 25.75032 -80.65410 37908 ft 453 kts 187°
2026-05-08 05:14 25.71893 -80.65640 37465 ft 451 kts 187°
2026-05-08 05:14 25.68758 -80.65869 36811 ft 452 kts 187°
2026-05-08 05:14 25.65655 -80.66099 36160 ft 453 kts 188°
2026-05-08 05:14 25.62499 -80.66339 35441 ft 456 kts 188°
2026-05-08 05:15 25.59323 -80.66582 34625 ft 460 kts 188°
2026-05-08 05:15 25.56110 -80.66824 33751 ft 465 kts 187°
2026-05-08 05:15 25.52864 -80.67065 32865 ft 470 kts 187°
2026-05-08 05:15 25.49586 -80.67306 31912 ft 475 kts 187°
2026-05-08 05:16 25.46277 -80.67548 30959 ft 479 kts 187°
2026-05-08 05:16 25.42948 -80.67789 29986 ft 481 kts 187°
2026-05-08 05:16 25.39598 -80.68068 28883 ft 483 kts 190°
2026-05-08 05:16 25.36343 -80.68754 27785 ft 483 kts 198°
2026-05-08 05:17 25.33085 -80.69684 26654 ft 485 kts 198°
2026-05-08 05:17 25.29803 -80.70615 25381 ft 489 kts 198°
2026-05-08 05:17 25.26502 -80.71545 24163 ft 490 kts 197°
2026-05-08 05:17 25.23203 -80.72466 23106 ft 488 kts 197°
2026-05-08 05:18 25.19928 -80.73374 22191 ft 482 kts 197°
2026-05-08 05:18 25.16691 -80.74269 21277 ft 477 kts 197°
2026-05-08 05:18 25.13535 -80.75145 20366 ft 472 kts 197°
2026-05-08 05:18 25.10365 -80.76028 19457 ft 467 kts 196°
2026-05-08 05:19 25.07228 -80.76906 18580 ft 462 kts 196°
2026-05-08 05:19 25.04133 -80.77788 17695 ft 457 kts 198°
2026-05-08 05:19 25.01193 -80.79044 16842 ft 450 kts 208°
2026-05-08 05:19 24.98520 -80.80799 15874 ft 445 kts 217°
2026-05-08 05:20 24.96168 -80.82976 15058 ft 439 kts 224°
2026-05-08 05:20 24.93919 -80.85227 14242 ft 435 kts 223°
2026-05-08 05:20 24.91719 -80.87419 13482 ft 430 kts 223°
2026-05-08 05:20 24.89504 -80.89618 12737 ft 427 kts 223°
2026-05-08 05:21 24.87304 -80.91791 12003 ft 423 kts 222°
2026-05-08 05:21 24.85119 -80.93947 11332 ft 419 kts 222°
2026-05-08 05:21 24.83001 -80.96041 11171 ft 400 kts 222°
2026-05-08 05:21 24.80986 -80.98039 11042 ft 380 kts 222°
2026-05-08 05:22 24.79064 -80.99944 10910 ft 363 kts 222°
2026-05-08 05:22 24.77281 -81.01825 10785 ft 345 kts 229°
2026-05-08 05:22 24.75934 -81.03841 10653 ft 320 kts 239°
2026-05-08 05:22 24.74793 -81.05894 10528 ft 309 kts 239°
2026-05-08 05:23 24.73679 -81.07891 10283 ft 303 kts 239°
2026-05-08 05:23 24.72589 -81.09844 10208 ft 299 kts 239°
2026-05-08 05:23 24.71499 -81.11790 10130 ft 299 kts 239°
2026-05-08 05:23 24.70411 -81.13734 10014 ft 298 kts 239°
2026-05-08 05:24 24.69323 -81.15681 9658 ft 301 kts 239°
2026-05-08 05:24 24.68231 -81.17636 9332 ft 298 kts 239°
2026-05-08 05:24 24.67158 -81.19552 8944 ft 298 kts 239°
2026-05-08 05:24 24.66079 -81.21474 8665 ft 293 kts 239°
2026-05-08 05:25 24.65004 -81.23377 8294 ft 293 kts 237°
2026-05-08 05:25 24.63734 -81.25118 7959 ft 291 kts 230°
2026-05-08 05:25 24.62420 -81.26789 7744 ft 286 kts 230°
2026-05-08 05:25 24.61136 -81.28420 7610 ft 278 kts 230°
2026-05-08 05:26 24.59893 -81.29998 7483 ft 269 kts 230°
2026-05-08 05:26 24.58690 -81.31526 7357 ft 260 kts 230°
2026-05-08 05:26 24.57539 -81.32989 7232 ft 252 kts 230°
2026-05-08 05:26 24.56414 -81.34420 7104 ft 243 kts 231°
2026-05-08 05:27 24.55507 -81.35947 6973 ft 237 kts 244°
2026-05-08 05:27 24.54758 -81.37562 6868 ft 237 kts 243°
2026-05-08 05:27 24.54000 -81.39170 6751 ft 237 kts 243°
2026-05-08 05:27 24.53245 -81.40769 6630 ft 233 kts 243°
2026-05-08 05:28 24.52514 -81.42313 6506 ft 223 kts 243°
2026-05-08 05:28 24.51813 -81.43792 6384 ft 213 kts 243°
2026-05-08 05:28 24.51151 -81.45184 6277 ft 203 kts 243°
2026-05-08 05:28 24.50502 -81.46545 6202 ft 201 kts 243°
2026-05-08 05:29 24.49854 -81.47904 6105 ft 201 kts 243°
2026-05-08 05:29 24.49211 -81.49259 6015 ft 200 kts 243°
2026-05-08 05:29 24.48569 -81.50612 5920 ft 200 kts 243°
2026-05-08 05:29 24.47928 -81.51964 5820 ft 200 kts 243°
2026-05-08 05:30 24.47290 -81.53314 5720 ft 199 kts 243°
2026-05-08 05:30 24.46760 -81.54715 5628 ft 199 kts 254°
2026-05-08 05:30 24.46493 -81.56176 5531 ft 198 kts 265°
2026-05-08 05:30 24.46457 -81.57687 5435 ft 198 kts 270°
2026-05-08 05:31 24.46448 -81.59201 5338 ft 198 kts 270°
2026-05-08 05:31 24.46435 -81.60714 5239 ft 198 kts 269°
2026-05-08 05:31 24.46421 -81.62227 5141 ft 199 kts 269°
2026-05-08 05:31 24.46408 -81.63742 5044 ft 198 kts 270°
2026-05-08 05:32 24.46396 -81.65252 4957 ft 198 kts 270°
2026-05-08 05:32 24.46382 -81.66741 4872 ft 198 kts 269°
2026-05-08 05:32 24.46366 -81.68252 4785 ft 198 kts 270°
2026-05-08 05:32 24.46351 -81.69759 4694 ft 198 kts 270°
2026-05-08 05:33 24.46336 -81.71265 4607 ft 194 kts 270°
2026-05-08 05:33 24.46322 -81.72699 4511 ft 181 kts 270°
2026-05-08 05:33 24.46310 -81.74022 4423 ft 166 kts 269°
2026-05-08 05:33 24.46298 -81.75255 4343 ft 159 kts 269°
2026-05-08 05:34 24.46287 -81.76465 4279 ft 159 kts 269°
2026-05-08 05:34 24.46272 -81.77660 4203 ft 159 kts 269°
2026-05-08 05:34 24.46261 -81.78873 4145 ft 157 kts 269°
2026-05-08 05:34 24.46252 -81.80075 4054 ft 157 kts 269°
2026-05-08 05:35 24.46242 -81.81267 3971 ft 156 kts 269°
2026-05-08 05:35 24.46229 -81.82458 3892 ft 157 kts 269°
2026-05-08 05:35 24.46215 -81.83653 3816 ft 157 kts 268°
2026-05-08 05:35 24.46199 -81.84849 3734 ft 157 kts 269°
2026-05-08 05:36 24.46186 -81.86046 3658 ft 157 kts 269°
2026-05-08 05:36 24.46173 -81.87228 3580 ft 157 kts 269°
2026-05-08 05:36 24.46159 -81.88424 3502 ft 157 kts 269°
2026-05-08 05:36 24.46146 -81.89617 3425 ft 156 kts 269°
2026-05-08 05:37 24.46133 -81.90808 3349 ft 156 kts 269°
2026-05-08 05:37 24.46121 -81.91997 3271 ft 155 kts 269°
2026-05-08 05:37 24.46109 -81.93185 3195 ft 156 kts 269°
2026-05-08 05:37 24.46133 -81.94379 3107 ft 157 kts 280°
2026-05-08 05:38 24.46533 -81.95481 3035 ft 156 kts 306°
2026-05-08 05:38 24.47297 -81.96288 2952 ft 155 kts 330°
2026-05-08 05:38 24.48293 -81.96674 2865 ft 151 kts 356°
2026-05-08 05:38 24.49340 -81.96698 2779 ft 151 kts
2026-05-08 05:39 24.50391 -81.96711 2693 ft 151 kts
2026-05-08 05:39 24.51437 -81.96727 2599 ft 150 kts
2026-05-08 05:39 24.52478 -81.96742 2511 ft 150 kts
2026-05-08 05:39 24.53515 -81.96691 2412 ft 147 kts 16°
2026-05-08 05:40 24.54435 -81.96236 2332 ft 144 kts 40°
2026-05-08 05:40 24.55087 -81.95438 2254 ft 142 kts 62°
2026-05-08 05:40 24.55402 -81.94421 2174 ft 141 kts 84°
2026-05-08 05:40 24.55426 -81.93343 2102 ft 142 kts 90°
2026-05-08 05:41 24.55438 -81.92246 2023 ft 144 kts 89°
2026-05-08 05:41 24.55449 -81.91143 1944 ft 145 kts 89°
2026-05-08 05:41 24.55459 -81.90038 1864 ft 145 kts 89°
2026-05-08 05:41 24.55470 -81.88929 1783 ft 145 kts 89°
2026-05-08 05:42 24.55483 -81.87817 1709 ft 146 kts 89°
2026-05-08 05:42 24.55494 -81.86719 1633 ft 145 kts 89°
2026-05-08 05:42 24.55505 -81.85610 1568 ft 145 kts 89°
2026-05-08 05:42 24.55516 -81.84504 1504 ft 145 kts 89°
2026-05-08 05:43 24.55513 -81.83397 1445 ft 146 kts 92°
2026-05-08 05:43 24.55474 -81.82280 1322 ft 147 kts 91°
2026-05-08 05:43 24.55480 -81.81162 1145 ft 146 kts 89°
2026-05-08 05:43 24.55534 -81.80051 852 ft 146 kts 86°
2026-05-08 05:44 24.55597 -81.78947 559 ft 144 kts 88°
2026-05-08 05:44 24.55613 -81.77864 260 ft 143 kts 91°
2026-05-08 05:44 24.55604 -81.76772 37 ft 142 kts 90°
2026-05-08 05:44 24.55613 -81.75789 14 ft 106 kts 88°
2026-05-08 05:45 24.55604 -81.75305 13 ft 29 kts 86°
2026-05-08 05:45 24.55558 -81.75239 13 ft 12 kts 181°
2026-05-08 05:45 24.55533 -81.75327 12 ft 15 kts 270°
2026-05-08 05:45 24.55533 -81.75457 12 ft 19 kts 268°
2026-05-08 05:46 24.55501 -81.75520 12 ft 8 kts 215°
2026-05-08 05:46 24.55488 -81.75566 12 ft 8 kts 265°
2026-05-08 05:46 24.55463 -81.75575 12 ft 0 kts 178°
2026-05-08 05:47 24.55462 -81.75576 12 ft 1 kts 183°
2026-05-08 05:47 24.55443 -81.75576 13 ft 3 kts 180°
2026-05-08 05:47 24.55439 -81.75576 12 ft 0 kts 180°